• Join FlightAware (Why Join?)
  • Login
  • US Flag 
03:16PM EDT


 

Airport Tracker/Info


-or-


 

Live Flight TrackerFlight Track Log ✈ ASH3770 ✈ 12-Jul-2013 ✈ KORF - KIAD

Flight Track Log - Related Links

Times and Time Zones

All times are in EDT time to prevent confusion due to time zone crossing. See the ASH3770 flight status page for this flight to view local times or setup timezone preferences in your user account.

Time Position Orientation Groundspeed Altitude Reporting Facility
EDT Latitude Longitude Course Direction KTS MPH feet Rate Location/Type
05:24PM 36.8469 -76.2511 217° Southwest 200 230 1,900  Level Washington Center
05:25PM 36.8653 -76.3189 289° West 214 246 4,100 2,280 Climbing Washington Center
05:26PM 37.1117 -76.6591 300° West  Level FlightAware Approximate
05:26PM 36.9022 -76.3919 302° West 227 261 6,400  Level Washington Center
05:27PM 37.1657 -76.7778 300° West  Level FlightAware Approximate
05:27PM 36.9497 -76.4731 306° West 262 302 9,000  Level Washington Center
05:28PM 37.2274 -76.8901 307° West  Level FlightAware Approximate
05:28PM 36.9992 -76.5567 307° West 286 329 11,600  Level Washington Center
05:29PM 37.0528 -76.6458 307° West 302 348 13,500 1,140 Climbing Washington Center
05:30PM 37.1061 -76.7403 305° West 324 373 13,900 240 Climbing Washington Center
05:31PM 37.1594 -76.8325 306° West 330 380 14,000  Climbing Washington Center
05:32PM 37.2147 -76.9244 307° West 342 394 14,000  Level Washington Center
05:33PM 37.2719 -77.0194 307° West 336 387 14,000  Level Washington Center
05:34PM 37.3272 -77.1144 306° West 341 392 14,000  Level Washington Center
05:35PM 37.3969 -77.1994 316° Northwest 341 392 14,000  Level Washington Center
05:36PM 37.4708 -77.2847 318° Northwest 353 406 14,000  Level Washington Center
05:37PM 37.5408 -77.3650 318° Northwest 353 406 14,000  Level Washington Center
05:38PM 37.6083 -77.4400 319° Northwest 347 399 14,000 -720 Level Washington Center
05:39PM 37.6864 -77.5233 320° Northwest 347 399 12,600 -1,680 Descending Washington Center
05:40PM 37.7497 -77.5958 318° Northwest 342 394 10,700 -1,320 Descending Washington Center
05:41PM 37.8297 -77.6819 320° Northwest 347 399 10,000 -360 Descending Washington Center
05:42PM 37.9094 -77.6606 12° North 285 328 10,000  Level Washington Center
05:43PM 37.9981 -77.5892 32° Northeast 306 352 10,000  Level Washington Center
05:44PM 38.0742 -77.5331 30° Northeast 325 374 10,100  Climbing Washington Center
05:45PM 38.1586 -77.4667 32° Northeast 344 396 10,100 -120 Level Washington Center
05:46PM 38.2386 -77.4183 25° Northeast 337 388 9,900 -960 Descending Washington Center
05:47PM 38.3178 -77.4256 356° North 295 339 8,200 -1,500 Descending Washington Center
05:48PM 38.3947 -77.4356 354° North 290 334 7,000 -600 Descending Washington Center
05:49PM 38.4675 -77.4425 356° North 278 320 7,000 -660 Level Washington Center
05:50PM 38.5322 -77.4494 355° North 249 287 5,800 -1,020 Descending Washington Center
05:51PM 38.5925 -77.4564 355° North 232 267 5,000 -540 Descending Washington Center
05:51PM 38.6333 -77.4500 North 193 222 5,000  Level Potomac TRACON
05:52PM 38.6833 -77.4667 345° North 194 223 5,000 -300 Level Potomac TRACON
05:53PM 38.7333 -77.4667 360° North 179 206 4,400 -840 Descending Potomac TRACON
05:54PM 38.7833 -77.4667 360° North 168 193 3,300 -960 Descending Potomac TRACON
05:55PM 38.8333 -77.4667 360° North 162 186 2,500 -840 Descending Potomac TRACON
05:56PM 38.8667 -77.4667 360° North 132 152 1,800 -720 Descending Potomac TRACON
05:57PM 38.9000 -77.4667 360° North 129 148 1,100 -660 Descending Potomac TRACON